Weather History for V.C. Bird, Antigua

Change the Weather History Date:

Wednesday, November 21, 2012

  Actual Average Record
Temperature  
Mean Temperature 80 °F -  
Max Temperature 87 °F 82 °F 87 °F (1997)
Min Temperature 72 °F 73 °F 71 °F (2003)
Cooling Degree Days 14    
Growing Degree Days 30 (Base 50)    
Moisture  
Dew Point 68 °F    
Average Humidity 70    
Maximum Humidity 83    
Minimum Humidity 41    
Precipitation  
Precipitation 0.00 in - - ()
Sea Level Pressure  
Sea Level Pressure 29.86 in    
Wind  
Wind Speed 3 mph ()    
Max Wind Speed 12 mph    
Max Gust Speed -    
Visibility 9.4 miles    
Events      
Averages and records for this station are not official NWS values.
T = Trace of Precipitation, MM = Missing Value Source: Averaged Metar Reports

Daily Weather History Graph

Daily Weather History Graph

Search for Another Location

Airport:

Trip Planner

Search our weather history database for the weather conditions in past years. The results will help you decide how hot, cold, wet, or windy it might be!

Date:

Astronomy

Nov. 21, 2012 Rise Set
Actual Time 6:15 AM AST 5:30 PM AST
Civil Twilight 5:52 AM AST 5:54 PM AST
Nautical Twilight 5:25 AM AST 6:20 PM AST
Astronomical Twilight 4:59 AM AST 6:46 PM AST
Moon 12:56 PM AST (11/21) 12:23 AM AST (11/21)
Length of Visible Light 12h 01m
Length of Day
11h 15m
First Quarter, 61% of the Moon is Illuminated
Nov 21
First Quarter
Nov 28
Full
Dec 6
Last Quarter
Dec 13
New
Dec 20
First Quarter

Hourly Weather History & Observations

Time (AST) Temp. Heat Index Dew Point Humidity Pressure Visibility Wind Dir Wind Speed Gust Speed Precip Events Conditions
12:00 AM 75.2 °F - 68.0 °F 78% 29.86 in 6.2 mi Calm Calm - N/A   Mostly Cloudy
1:00 AM 73.4 °F - 68.0 °F 83% 29.86 in 6.2 mi Calm Calm - N/A   Mostly Cloudy
2:00 AM 74 °F - 68 °F 76% 29.86 in 19 mi Calm Calm - -   Scattered Clouds
2:00 AM 73.4 °F - 68.0 °F 83% 29.86 in 6.2 mi Calm Calm - N/A   Mostly Cloudy
3:00 AM 73.4 °F - 68.0 °F 83% 29.83 in 6.2 mi Calm Calm - N/A   Partly Cloudy
4:00 AM 73.4 °F - 68.0 °F 83% 29.83 in 6.2 mi Calm Calm - N/A   Partly Cloudy
5:00 AM 73 °F - 67 °F 76% 29.84 in 19 mi Calm Calm - -   Scattered Clouds
5:00 AM 73.4 °F - 66.2 °F 78% 29.83 in 6.2 mi Calm Calm - N/A   Partly Cloudy
6:00 AM 73.4 °F - 66.2 °F 78% 29.86 in 6.2 mi Calm Calm - N/A   Partly Cloudy
7:00 AM 75.2 °F - 68.0 °F 78% 29.86 in 6.2 mi Variable 1.2 mph - N/A   Partly Cloudy
8:00 AM 79 °F - 70 °F 66% 29.90 in 19 mi 2.3 mph - -   Scattered Clouds
8:00 AM 78.8 °F - 69.8 °F 74% 29.89 in 6.2 mi Variable 2.3 mph - N/A   Partly Cloudy
9:00 AM 82.4 °F 86.3 °F 69.8 °F 66% 29.89 in 6.2 mi SE 10.4 mph - N/A   Partly Cloudy
10:00 AM 84.2 °F 88.4 °F 69.8 °F 62% 29.92 in 6.2 mi SSE 5.8 mph - N/A   Partly Cloudy
11:00 AM 85 °F - 68 °F 48% 29.91 in 19 mi SSE 9.2 mph - -   Scattered Clouds
11:00 AM 86.0 °F 89.4 °F 68.0 °F 55% 29.89 in 6.2 mi SSE 9.2 mph - N/A   Partly Cloudy
12:00 PM 84.2 °F 87.3 °F 68.0 °F 58% 29.86 in 6.2 mi South 11.5 mph - N/A   Partly Cloudy
1:00 PM 86.0 °F 89.4 °F 68.0 °F 55% 29.83 in 6.2 mi SSE 9.2 mph - N/A   Scattered Clouds
2:00 PM 86 °F - 65 °F 41% 29.84 in 19 mi South 8.1 mph - -   Scattered Clouds
2:00 PM 86.0 °F 88.2 °F 66.2 °F 51% 29.83 in 6.2 mi South 8.1 mph - N/A   Partly Cloudy
3:00 PM 86.0 °F 88.2 °F 66.2 °F 51% 29.83 in 6.2 mi South 9.2 mph - N/A   Partly Cloudy
4:00 PM 84.2 °F 88.4 °F 69.8 °F 62% 29.83 in 6.2 mi South 8.1 mph - N/A   Partly Cloudy
5:00 PM 82 °F - 69 °F 56% 29.84 in 19 mi South 5.8 mph - -   Scattered Clouds
5:00 PM 82.4 °F 86.3 °F 69.8 °F 66% 29.83 in 6.2 mi South 5.8 mph - N/A   Partly Cloudy
6:00 PM 78.8 °F - 69.8 °F 74% 29.83 in 6.2 mi SSE 3.5 mph - N/A   Partly Cloudy
7:00 PM 77.0 °F - 69.8 °F 78% 29.86 in 6.2 mi South 3.5 mph - N/A   Partly Cloudy
8:00 PM 77 °F - 70 °F 72% 29.88 in 19 mi 2.3 mph - -   Scattered Clouds
8:00 PM 77.0 °F - 69.8 °F 78% 29.86 in 6.2 mi Variable 2.3 mph - N/A   Partly Cloudy
9:00 PM 75.2 °F - 69.8 °F 83% 29.89 in 6.2 mi Variable 2.3 mph - N/A   Scattered Clouds
10:00 PM 75.2 °F - 69.8 °F 83% 29.89 in 6.2 mi SSW 3.5 mph - N/A   Partly Cloudy
11:00 PM 76 °F - 70 °F 76% 29.89 in 19 mi 1.2 mph - -   Scattered Clouds
11:00 PM 75.2 °F - 69.8 °F 83% 29.89 in 6.2 mi Variable 1.2 mph - N/A   Partly Cloudy